Time,TemperatureF,DewpointF,PressureIn,WindDirection,WindDirectionDegrees,WindSpeedMPH,WindSpeedGustMPH,Humidity,HourlyPrecipIn,Conditions,Clouds,dailyrainin,SoftwareType,DateUTC
2013-08-16 00:02:00,62.2,25.0,30.06,NNE,22,0.0,0.0,24,0.00,,---,0.00,VWS V14.01,2013-08-16 07:02:00,
2013-08-16 00:07:00,61.9,24.7,30.06,NNE,22,0.0,0.0,24,0.00,,---,0.00,VWS V14.01,2013-08-16 07:07:00,
2013-08-16 00:13:00,61.9,24.7,30.06,NNE,22,0.0,0.0,24,0.00,,---,0.00,VWS V14.01,2013-08-16 07:13:00,
2013-08-16 00:19:00,61.9,24.7,30.06,NNE,22,0.0,0.0,24,0.00,,---,0.00,VWS V14.01,2013-08-16 07:19:00,
2013-08-16 00:24:00,61.9,24.7,30.06,ENE,75,0.0,0.0,24,0.00,,---,0.00,VWS V14.01,2013-08-16 07:24:00,
2013-08-16 00:30:00,61.7,24.6,30.06,ENE,75,0.0,0.0,24,0.00,,---,0.00,VWS V14.01,2013-08-16 07:30:00,
2013-08-16 00:35:00,61.2,24.1,30.06,NE,37,0.0,0.0,24,0.00,,---,0.00,VWS V14.01,2013-08-16 07:35:00,
2013-08-16 00:41:00,60.8,23.8,30.06,NE,37,0.0,0.0,24,0.00,,---,0.00,VWS V14.01,2013-08-16 07:41:00,
2013-08-16 00:46:00,60.8,23.8,30.06,SE,142,3.6,4.0,24,0.00,,---,0.00,VWS V14.01,2013-08-16 07:46:00,
2013-08-16 00:52:00,60.8,23.8,30.06,SE,140,2.7,2.7,24,0.00,,---,0.00,VWS V14.01,2013-08-16 07:52:00,
2013-08-16 00:58:00,60.6,25.1,30.06,SE,138,2.2,2.2,26,0.00,,---,0.00,VWS V14.01,2013-08-16 07:58:00,
2013-08-16 01:03:00,60.6,25.1,30.06,ESE,115,2.2,2.7,26,0.00,,---,0.00,VWS V14.01,2013-08-16 08:03:00,
2013-08-16 01:08:00,60.4,25.0,30.06,NE,37,3.6,3.6,26,0.00,,---,0.00,VWS V14.01,2013-08-16 08:08:00,
2013-08-16 01:14:00,60.1,24.6,30.06,NE,56,2.7,3.1,26,0.00,,---,0.00,VWS V14.01,2013-08-16 08:14:00,
2013-08-16 01:19:00,59.9,24.5,30.06,ENE,61,0.0,0.0,26,0.00,,---,0.00,VWS V14.01,2013-08-16 08:19:00,
2013-08-16 01:25:00,60.4,25.0,30.06,East,84,0.0,0.0,26,0.00,,---,0.00,VWS V14.01,2013-08-16 08:25:00,
2013-08-16 01:30:00,60.4,25.0,30.06,East,84,0.0,0.0,26,0.00,,---,0.00,VWS V14.01,2013-08-16 08:30:00,
2013-08-16 01:35:00,60.3,24.8,30.06,East,99,0.0,0.0,26,0.00,,---,0.00,VWS V14.01,2013-08-16 08:35:00,
2013-08-16 01:41:00,60.3,24.8,30.06,East,99,0.0,0.0,26,0.00,,---,0.00,VWS V14.01,2013-08-16 08:41:00,
2013-08-16 01:46:00,60.3,24.8,30.06,ENE,64,4.9,4.9,26,0.00,,---,0.00,VWS V14.01,2013-08-16 08:46:00,
2013-08-16 01:52:00,60.1,24.6,30.06,ENE,73,0.0,0.0,26,0.00,,---,0.00,VWS V14.01,2013-08-16 08:52:00,
2013-08-16 01:57:00,59.7,24.3,30.06,ENE,73,0.0,0.0,26,0.00,,---,0.00,VWS V14.01,2013-08-16 08:57:00,
2013-08-16 02:02:00,59.5,24.2,30.06,ENE,73,0.0,0.0,26,0.00,,---,0.00,VWS V14.01,2013-08-16 09:02:00,
2013-08-16 02:07:00,59.4,24.0,30.06,ENE,73,0.0,0.0,26,0.00,,---,0.00,VWS V14.01,2013-08-16 09:07:00,
2013-08-16 02:13:00,59.4,24.0,30.06,ESE,117,0.0,0.0,26,0.00,,---,0.00,VWS V14.01,2013-08-16 09:13:00,
2013-08-16 02:18:00,59.4,24.0,30.06,ESE,122,0.0,0.0,26,0.00,,---,0.00,VWS V14.01,2013-08-16 09:18:00,
2013-08-16 02:23:00,59.2,23.9,30.06,ENE,68,0.0,0.0,26,0.00,,---,0.00,VWS V14.01,2013-08-16 09:23:00,
2013-08-16 02:30:00,58.5,23.3,30.06,ENE,68,0.0,0.0,26,0.00,,---,0.00,VWS V14.01,2013-08-16 09:30:00,
2013-08-16 02:35:00,58.3,23.1,30.06,ENE,68,0.0,0.0,26,0.00,,---,0.00,VWS V14.01,2013-08-16 09:35:00,
2013-08-16 02:41:00,58.1,23.0,30.06,ENE,68,0.0,0.0,26,0.00,,---,0.00,VWS V14.01,2013-08-16 09:41:00,
2013-08-16 02:46:00,58.3,23.1,30.06,ENE,68,0.0,0.0,26,0.00,,---,0.00,VWS V14.01,2013-08-16 09:46:00,
2013-08-16 02:51:00,58.1,23.0,30.06,ENE,68,0.0,0.0,26,0.00,,---,0.00,VWS V14.01,2013-08-16 09:51:00,
2013-08-16 02:56:00,57.9,22.8,30.06,ENE,68,0.0,0.0,26,0.00,,---,0.00,VWS V14.01,2013-08-16 09:56:00,
2013-08-16 03:02:00,57.9,22.8,30.06,ENE,68,0.0,0.0,26,0.00,,---,0.00,VWS V14.01,2013-08-16 10:02:00,
2013-08-16 03:07:00,57.6,22.5,30.06,ENE,68,0.0,0.0,26,0.00,,---,0.00,VWS V14.01,2013-08-16 10:07:00,
2013-08-16 03:13:00,57.6,22.5,30.06,ENE,68,0.0,0.0,26,0.00,,---,0.00,VWS V14.01,2013-08-16 10:13:00,
2013-08-16 03:19:00,57.4,22.3,30.06,ENE,68,0.0,0.0,26,0.00,,---,0.00,VWS V14.01,2013-08-16 10:19:00,
2013-08-16 03:25:00,57.0,22.0,30.06,ENE,68,0.0,0.0,26,0.00,,---,0.00,VWS V14.01,2013-08-16 10:25:00,
2013-08-16 03:30:00,57.0,22.0,30.06,ENE,68,0.0,0.0,26,0.00,,---,0.00,VWS V14.01,2013-08-16 10:30:00,
2013-08-16 03:36:00,57.0,22.0,30.06,ENE,68,0.0,0.0,26,0.00,,---,0.00,VWS V14.01,2013-08-16 10:36:00,
2013-08-16 03:42:00,57.2,22.2,30.06,ENE,68,0.0,0.0,26,0.00,,---,0.00,VWS V14.01,2013-08-16 10:42:00,
2013-08-16 03:48:00,56.8,21.9,30.06,NE,36,0.0,0.0,26,0.00,,---,0.00,VWS V14.01,2013-08-16 10:48:00,
2013-08-16 03:54:00,56.7,21.7,30.06,NE,36,0.0,0.0,26,0.00,,---,0.00,VWS V14.01,2013-08-16 10:54:00,
2013-08-16 03:59:00,56.8,21.9,30.06,NE,36,0.0,0.0,26,0.00,,---,0.00,VWS V14.01,2013-08-16 10:59:00,
2013-08-16 04:05:00,56.8,21.9,30.06,SSE,166,3.6,3.6,26,0.00,,---,0.00,VWS V14.01,2013-08-16 11:05:00,
2013-08-16 04:11:00,57.0,22.0,30.06,SSE,149,0.0,0.0,26,0.00,,---,0.00,VWS V14.01,2013-08-16 11:11:00,
2013-08-16 04:16:00,57.2,22.2,30.06,East,87,0.0,0.0,26,0.00,,---,0.00,VWS V14.01,2013-08-16 11:16:00,
2013-08-16 04:22:00,56.7,21.7,30.06,NE,50,0.0,3.1,26,0.00,,---,0.00,VWS V14.01,2013-08-16 11:22:00,
2013-08-16 04:28:00,56.5,21.6,30.06,ENE,72,0.0,2.2,26,0.00,,---,0.00,VWS V14.01,2013-08-16 11:28:00,
2013-08-16 04:33:00,56.7,21.7,30.06,ENE,68,0.0,0.0,26,0.00,,---,0.00,VWS V14.01,2013-08-16 11:33:00,
2013-08-16 04:39:00,56.7,21.7,30.03,ENE,68,0.0,0.0,26,0.00,,---,0.00,VWS V14.01,2013-08-16 11:39:00,
2013-08-16 04:44:00,56.5,21.6,30.03,ENE,68,0.0,0.0,26,0.00,,---,0.00,VWS V14.01,2013-08-16 11:44:00,
2013-08-16 04:49:00,56.3,21.4,30.03,ENE,68,0.0,0.0,26,0.00,,---,0.00,VWS V14.01,2013-08-16 11:49:00,
2013-08-16 04:54:00,56.1,21.3,30.03,ENE,68,0.0,0.0,26,0.00,,---,0.00,VWS V14.01,2013-08-16 11:54:00,
2013-08-16 05:00:00,55.9,21.1,30.03,ENE,68,0.0,0.0,26,0.00,,---,0.00,VWS V14.01,2013-08-16 12:00:00,
2013-08-16 05:05:00,55.9,21.1,30.03,ENE,68,0.0,0.0,26,0.00,,---,0.00,VWS V14.01,2013-08-16 12:05:00,
2013-08-16 05:11:00,56.1,21.3,30.03,ENE,68,0.0,0.0,26,0.00,,---,0.00,VWS V14.01,2013-08-16 12:11:00,
2013-08-16 05:17:00,56.3,21.4,30.03,ENE,68,0.0,0.0,26,0.00,,---,0.00,VWS V14.01,2013-08-16 12:17:00,
2013-08-16 05:23:00,56.5,21.6,30.03,SE,138,0.0,0.0,26,0.00,,---,0.00,VWS V14.01,2013-08-16 12:23:00,
2013-08-16 05:28:00,56.5,21.6,30.03,SE,138,0.0,0.0,26,0.00,,---,0.00,VWS V14.01,2013-08-16 12:28:00,
2013-08-16 05:34:00,56.3,21.4,30.03,SE,138,0.0,0.0,26,0.00,,---,0.00,VWS V14.01,2013-08-16 12:34:00,
2013-08-16 05:40:00,55.9,21.1,30.03,SE,138,0.0,0.0,26,0.00,,---,0.00,VWS V14.01,2013-08-16 12:40:00,
2013-08-16 05:46:00,55.9,21.1,30.03,SE,138,0.0,0.0,26,0.00,,---,0.00,VWS V14.01,2013-08-16 12:46:00,
2013-08-16 05:52:00,56.1,21.3,30.06,SE,138,0.0,0.0,26,0.00,,---,0.00,VWS V14.01,2013-08-16 12:52:00,
2013-08-16 05:57:00,56.1,21.3,30.06,SE,138,0.0,0.0,26,0.00,,---,0.00,VWS V14.01,2013-08-16 12:57:00,
2013-08-16 06:03:00,56.1,21.3,30.06,SE,138,0.0,0.0,26,0.00,,---,0.00,VWS V14.01,2013-08-16 13:03:00,
2013-08-16 06:08:00,55.9,21.1,30.06,SE,129,0.0,0.0,26,0.00,,---,0.00,VWS V14.01,2013-08-16 13:08:00,
2013-08-16 06:13:00,55.6,20.8,30.06,SE,129,0.0,0.0,26,0.00,,---,0.00,VWS V14.01,2013-08-16 13:13:00,
2013-08-16 06:19:00,55.6,20.8,30.06,South,179,0.0,0.0,26,0.00,,---,0.00,VWS V14.01,2013-08-16 13:19:00,
2013-08-16 06:24:00,55.9,21.1,30.06,South,179,0.0,0.0,26,0.00,,---,0.00,VWS V14.01,2013-08-16 13:24:00,
2013-08-16 06:30:00,55.9,21.1,30.06,South,179,0.0,0.0,26,0.00,,---,0.00,VWS V14.01,2013-08-16 13:30:00,
2013-08-16 06:35:00,55.9,25.0,30.06,South,179,0.0,0.0,30,0.00,,---,0.00,VWS V14.01,2013-08-16 13:35:00,
2013-08-16 06:42:00,56.3,25.3,30.06,South,179,0.0,0.0,30,0.00,,---,0.00,VWS V14.01,2013-08-16 13:42:00,
2013-08-16 06:47:00,56.8,25.8,30.06,ESE,107,0.0,0.0,30,0.00,,---,0.00,VWS V14.01,2013-08-16 13:47:00,
2013-08-16 06:53:00,57.4,25.0,30.06,ESE,120,0.0,0.0,28,0.00,,---,0.00,VWS V14.01,2013-08-16 13:53:00,
2013-08-16 06:59:00,58.3,25.8,30.06,SW,214,0.0,0.0,28,0.00,,---,0.00,VWS V14.01,2013-08-16 13:59:00,
2013-08-16 07:05:00,59.4,26.7,30.06,SSE,157,0.0,0.0,28,0.00,,---,0.00,VWS V14.01,2013-08-16 14:05:00,
2013-08-16 07:10:00,60.3,27.5,30.06,SSE,157,0.0,0.0,28,0.00,,---,0.00,VWS V14.01,2013-08-16 14:10:00,
2013-08-16 07:15:00,61.3,28.4,30.06,SSE,157,0.0,0.0,28,0.00,,---,0.00,VWS V14.01,2013-08-16 14:15:00,
2013-08-16 07:21:00,62.6,28.2,30.06,ESE,103,0.0,0.0,27,0.00,,---,0.00,VWS V14.01,2013-08-16 14:21:00,
2013-08-16 07:26:00,63.7,29.1,30.06,ESE,103,0.0,0.0,27,0.00,,---,0.00,VWS V14.01,2013-08-16 14:26:00,
2013-08-16 07:31:00,64.8,30.0,30.06,ESE,103,0.0,0.0,27,0.00,,---,0.00,VWS V14.01,2013-08-16 14:31:00,
2013-08-16 07:37:00,66.0,31.1,30.06,ESE,103,0.0,0.0,27,0.00,,---,0.00,VWS V14.01,2013-08-16 14:37:00,
2013-08-16 07:43:00,67.5,30.9,30.06,South,169,0.0,0.0,26,0.00,,---,0.00,VWS V14.01,2013-08-16 14:43:00,
2013-08-16 07:48:00,68.7,32.0,30.06,SSW,213,0.0,0.0,26,0.00,,---,0.00,VWS V14.01,2013-08-16 14:48:00,
2013-08-16 07:54:00,70.5,33.5,30.06,SSW,213,0.0,0.0,26,0.00,,---,0.00,VWS V14.01,2013-08-16 14:54:00,
2013-08-16 07:59:00,71.8,37.4,30.06,SSW,213,0.0,0.0,28,0.00,,---,0.00,VWS V14.01,2013-08-16 14:59:00,
2013-08-16 08:04:00,73.0,38.5,30.06,SSW,213,0.0,0.0,28,0.00,,---,0.00,VWS V14.01,2013-08-16 15:04:00,
2013-08-16 08:10:00,74.1,35.1,30.06,SSW,213,0.0,0.0,24,0.00,,---,0.00,VWS V14.01,2013-08-16 15:10:00,
2013-08-16 08:15:00,75.4,34.5,30.06,SSW,213,0.0,0.0,22,0.00,,---,0.00,VWS V14.01,2013-08-16 15:15:00,
2013-08-16 08:21:00,76.8,35.7,30.06,SSW,213,0.0,0.0,22,0.00,,---,0.00,VWS V14.01,2013-08-16 15:21:00,
2013-08-16 08:26:00,78.1,36.8,30.06,SSW,213,0.0,0.0,22,0.00,,---,0.00,VWS V14.01,2013-08-16 15:26:00,
2013-08-16 08:31:00,79.2,37.7,30.06,SSW,213,0.0,0.0,22,0.00,,---,0.00,VWS V14.01,2013-08-16 15:31:00,
2013-08-16 08:37:00,80.6,37.1,30.06,SSW,213,0.0,0.0,21,0.00,,---,0.00,VWS V14.01,2013-08-16 15:37:00,
2013-08-16 08:42:00,82.0,38.3,30.06,SSE,167,0.0,0.0,21,0.00,,---,0.00,VWS V14.01,2013-08-16 15:42:00,
2013-08-16 08:48:00,83.3,39.3,30.06,SW,223,3.6,4.0,21,0.00,,---,0.00,VWS V14.01,2013-08-16 15:48:00,
2013-08-16 08:53:00,84.2,38.2,30.06,West,268,3.6,4.9,20,0.00,,---,0.00,VWS V14.01,2013-08-16 15:53:00,
2013-08-16 08:58:00,84.9,38.8,30.06,NW,307,5.4,8.1,20,0.00,,---,0.00,VWS V14.01,2013-08-16 15:58:00,
2013-08-16 09:03:00,85.3,39.1,30.06,West,275,5.8,8.1,20,0.00,,---,0.00,VWS V14.01,2013-08-16 16:03:00,
2013-08-16 09:09:00,86.2,39.8,30.06,WNW,293,4.9,7.6,20,0.00,,---,0.00,VWS V14.01,2013-08-16 16:09:00,
2013-08-16 09:14:00,86.7,40.2,30.06,WSW,246,6.3,6.3,20,0.00,,---,0.00,VWS V14.01,2013-08-16 16:14:00,
2013-08-16 09:20:00,87.4,40.8,30.06,WSW,237,4.9,8.3,20,0.00,,---,0.00,VWS V14.01,2013-08-16 16:20:00,
2013-08-16 09:25:00,88.0,41.3,30.06,WSW,245,8.7,8.7,20,0.00,,---,0.00,VWS V14.01,2013-08-16 16:25:00,
2013-08-16 09:30:00,88.3,41.6,30.06,SSW,207,7.2,7.6,20,0.00,,---,0.00,VWS V14.01,2013-08-16 16:30:00,
2013-08-16 09:36:00,88.3,41.6,30.06,WSW,256,8.1,8.1,20,0.00,,---,0.00,VWS V14.01,2013-08-16 16:36:00,
2013-08-16 09:41:00,88.3,41.6,30.06,WSW,253,8.7,8.7,20,0.00,,---,0.00,VWS V14.01,2013-08-16 16:41:00,
2013-08-16 09:47:00,88.3,41.6,30.06,West,268,3.6,5.8,20,0.00,,---,0.00,VWS V14.01,2013-08-16 16:47:00,
2013-08-16 09:53:00,88.7,41.9,30.06,WNW,286,5.8,8.3,20,0.00,,---,0.00,VWS V14.01,2013-08-16 16:53:00,
2013-08-16 09:59:00,89.1,42.2,30.06,West,271,8.3,8.7,20,0.00,,---,0.00,VWS V14.01,2013-08-16 16:59:00,
2013-08-16 10:04:00,89.4,42.5,30.06,West,261,5.8,10.1,20,0.00,,---,0.00,VWS V14.01,2013-08-16 17:04:00,
2013-08-16 10:10:00,89.6,40.5,30.09,NW,325,4.0,8.1,18,0.00,,---,0.00,VWS V14.01,2013-08-16 17:10:00,
2013-08-16 10:16:00,90.1,41.0,30.09,West,272,8.1,8.7,18,0.00,,---,0.00,VWS V14.01,2013-08-16 17:16:00,
2013-08-16 10:21:00,90.7,41.4,30.09,West,276,10.1,10.1,18,0.00,,---,0.00,VWS V14.01,2013-08-16 17:21:00,
2013-08-16 10:27:00,91.2,41.8,30.09,SW,220,7.6,8.7,18,0.00,,---,0.00,VWS V14.01,2013-08-16 17:27:00,
2013-08-16 10:32:00,91.8,42.3,30.09,West,262,5.4,6.7,18,0.00,,---,0.00,VWS V14.01,2013-08-16 17:32:00,
2013-08-16 10:38:00,90.7,41.4,30.09,WNW,299,10.1,10.1,18,0.00,,---,0.00,VWS V14.01,2013-08-16 17:38:00,
2013-08-16 10:43:00,90.3,41.1,30.09,West,260,12.3,12.3,18,0.00,,---,0.00,VWS V14.01,2013-08-16 17:43:00,
2013-08-16 10:49:00,91.6,42.1,30.09,WSW,237,10.5,10.5,18,0.00,,---,0.00,VWS V14.01,2013-08-16 17:49:00,
2013-08-16 10:55:00,92.1,42.6,30.06,WSW,237,6.7,11.0,18,0.00,,---,0.00,VWS V14.01,2013-08-16 17:55:00,
2013-08-16 11:00:00,92.3,42.7,30.06,WSW,254,9.2,12.3,18,0.00,,---,0.00,VWS V14.01,2013-08-16 18:00:00,
2013-08-16 11:06:00,91.0,41.7,30.06,West,260,13.2,15.0,18,0.00,,---,0.00,VWS V14.01,2013-08-16 18:06:00,
2013-08-16 11:12:00,91.9,42.4,30.06,NW,324,8.7,9.6,18,0.00,,---,0.00,VWS V14.01,2013-08-16 18:12:00,
2013-08-16 11:17:00,91.6,42.1,30.06,West,264,11.0,11.0,18,0.00,,---,0.00,VWS V14.01,2013-08-16 18:17:00,
2013-08-16 11:22:00,92.1,42.6,30.06,WNW,300,10.5,12.8,18,0.00,,---,0.00,VWS V14.01,2013-08-16 18:22:00,
2013-08-16 11:28:00,91.8,42.3,30.06,NW,314,8.7,8.7,18,0.00,,---,0.00,VWS V14.01,2013-08-16 18:28:00,
2013-08-16 11:33:00,91.9,42.4,30.06,West,266,7.6,9.2,18,0.00,,---,0.00,VWS V14.01,2013-08-16 18:33:00,
2013-08-16 11:38:00,92.3,42.7,30.09,WSW,255,8.3,12.8,18,0.00,,---,0.00,VWS V14.01,2013-08-16 18:38:00,
2013-08-16 11:43:00,92.7,43.0,30.09,West,272,13.2,13.2,18,0.00,,---,0.00,VWS V14.01,2013-08-16 18:43:00,
2013-08-16 11:48:00,93.2,41.2,30.09,West,272,13.2,13.2,16,0.00,,---,0.00,VWS V14.01,2013-08-16 18:48:00,
2013-08-16 11:55:00,92.3,42.7,30.06,West,267,8.3,8.3,18,0.00,,---,0.00,VWS V14.01,2013-08-16 18:55:00,
2013-08-16 12:01:00,92.1,42.6,30.06,West,267,8.3,8.3,18,0.00,,---,0.00,VWS V14.01,2013-08-16 19:01:00,
2013-08-16 12:06:00,93.0,43.3,30.06,West,274,5.4,5.4,18,0.00,,---,0.00,VWS V14.01,2013-08-16 19:06:00,
2013-08-16 12:11:00,92.5,42.9,30.06,West,269,8.7,8.7,18,0.00,,---,0.00,VWS V14.01,2013-08-16 19:11:00,
2013-08-16 12:16:00,92.8,43.2,30.06,West,267,8.3,8.3,18,0.00,,---,0.00,VWS V14.01,2013-08-16 19:16:00,
2013-08-16 12:21:00,92.8,43.2,30.06,SW,235,8.7,8.7,18,0.00,,---,0.00,VWS V14.01,2013-08-16 19:21:00,
2013-08-16 12:26:00,93.0,43.3,30.06,WSW,239,10.1,10.1,18,0.00,,---,0.00,VWS V14.01,2013-08-16 19:26:00,
2013-08-16 12:31:00,93.0,43.3,30.06,WSW,252,8.7,8.7,18,0.00,,---,0.00,VWS V14.01,2013-08-16 19:31:00,
2013-08-16 12:37:00,93.4,41.3,30.06,West,260,8.7,8.7,16,0.00,,---,0.00,VWS V14.01,2013-08-16 19:37:00,
2013-08-16 12:43:00,92.7,43.0,30.06,West,273,8.1,12.8,18,0.00,,---,0.00,VWS V14.01,2013-08-16 19:43:00,
2013-08-16 12:49:00,92.5,42.9,30.06,West,276,12.8,12.8,18,0.00,,---,0.00,VWS V14.01,2013-08-16 19:49:00,
2013-08-16 12:57:00,92.3,42.7,30.06,West,271,8.3,8.3,18,0.00,,---,0.00,VWS V14.01,2013-08-16 19:57:00,
2013-08-16 13:02:00,92.7,43.0,30.06,NW,314,13.2,13.2,18,0.00,,---,0.00,VWS V14.01,2013-08-16 20:02:00,
2013-08-16 13:08:00,94.5,42.2,30.06,NW,314,13.2,13.2,16,0.00,,---,0.00,VWS V14.01,2013-08-16 20:08:00,
2013-08-16 13:13:00,95.7,43.2,30.06,NW,314,13.2,13.2,16,0.00,,---,0.00,VWS V14.01,2013-08-16 20:13:00,
2013-08-16 13:18:00,95.4,42.9,30.06,NW,314,13.2,13.2,16,0.00,,---,0.00,VWS V14.01,2013-08-16 20:18:00,
2013-08-16 13:24:00,94.3,42.0,30.06,West,273,15.9,15.9,16,0.00,,---,0.00,VWS V14.01,2013-08-16 20:24:00,
2013-08-16 13:30:00,93.9,41.8,30.06,WSW,253,8.7,8.7,16,0.00,,---,0.00,VWS V14.01,2013-08-16 20:30:00,
2013-08-16 13:36:00,94.1,41.9,30.06,WSW,253,8.7,8.7,16,0.00,,---,0.00,VWS V14.01,2013-08-16 20:36:00,
2013-08-16 13:41:00,93.0,43.3,30.06,NW,316,8.3,8.3,18,0.00,,---,0.00,VWS V14.01,2013-08-16 20:41:00,
2013-08-16 13:46:00,93.7,41.6,30.06,NW,316,8.3,8.3,16,0.00,,---,0.00,VWS V14.01,2013-08-16 20:46:00,
2013-08-16 13:51:00,93.4,41.3,30.06,NW,316,8.3,8.3,16,0.00,,---,0.00,VWS V14.01,2013-08-16 20:51:00,
2013-08-16 13:56:00,93.7,41.6,30.06,NW,316,8.3,8.3,16,0.00,,---,0.00,VWS V14.01,2013-08-16 20:56:00,
2013-08-16 14:02:00,94.8,42.5,30.06,WSW,253,11.0,11.0,16,0.00,,---,0.00,VWS V14.01,2013-08-16 21:02:00,
2013-08-16 14:07:00,95.0,42.6,30.06,WNW,286,6.3,6.3,16,0.00,,---,0.00,VWS V14.01,2013-08-16 21:07:00,
2013-08-16 14:12:00,94.6,42.3,30.06,West,263,11.0,11.0,16,0.00,,---,0.00,VWS V14.01,2013-08-16 21:12:00,
2013-08-16 14:17:00,94.1,41.9,30.06,WSW,258,11.9,11.9,16,0.00,,---,0.00,VWS V14.01,2013-08-16 21:17:00,
2013-08-16 14:22:00,95.0,42.6,30.06,WSW,258,11.9,11.9,16,0.00,,---,0.00,VWS V14.01,2013-08-16 21:22:00,
2013-08-16 14:28:00,93.7,41.6,30.06,WSW,258,11.9,11.9,16,0.00,,---,0.00,VWS V14.01,2013-08-16 21:28:00,
2013-08-16 14:34:00,93.7,41.6,30.06,WNW,301,12.3,12.3,16,0.00,,---,0.00,VWS V14.01,2013-08-16 21:34:00,
2013-08-16 14:39:00,94.1,41.9,30.06,West,273,8.3,8.3,16,0.00,,---,0.00,VWS V14.01,2013-08-16 21:39:00,
2013-08-16 14:44:00,94.3,42.0,30.06,West,273,8.3,8.3,16,0.00,,---,0.00,VWS V14.01,2013-08-16 21:44:00,
2013-08-16 14:49:00,93.6,41.5,30.06,West,279,8.1,8.1,16,0.00,,---,0.00,VWS V14.01,2013-08-16 21:49:00,
2013-08-16 14:55:00,95.4,42.9,30.06,SSW,206,7.6,7.6,16,0.00,,---,0.00,VWS V14.01,2013-08-16 21:55:00,
2013-08-16 15:01:00,94.5,42.2,30.06,SSW,206,7.6,7.6,16,0.00,,---,0.00,VWS V14.01,2013-08-16 22:01:00,
2013-08-16 15:07:00,93.6,41.5,30.03,SSW,206,7.6,7.6,16,0.00,,---,0.00,VWS V14.01,2013-08-16 22:07:00,
2013-08-16 15:12:00,93.7,41.6,30.03,SSW,206,7.6,7.6,16,0.00,,---,0.00,VWS V14.01,2013-08-16 22:12:00,
2013-08-16 15:17:00,92.8,43.2,30.03,SSW,206,7.6,7.6,18,0.00,,---,0.00,VWS V14.01,2013-08-16 22:17:00,
2013-08-16 15:22:00,93.6,41.5,30.03,SSW,206,7.6,7.6,16,0.00,,---,0.00,VWS V14.01,2013-08-16 22:22:00,
2013-08-16 15:28:00,92.8,43.2,30.03,SSW,206,7.6,7.6,18,0.00,,---,0.00,VWS V14.01,2013-08-16 22:28:00,
2013-08-16 15:34:00,93.6,41.5,30.03,West,267,13.2,13.2,16,0.00,,---,0.00,VWS V14.01,2013-08-16 22:34:00,
2013-08-16 15:40:00,93.2,41.2,30.03,WNW,288,13.2,13.2,16,0.00,,---,0.00,VWS V14.01,2013-08-16 22:40:00,
2013-08-16 15:46:00,93.9,41.8,30.03,WNW,288,13.2,13.2,16,0.00,,---,0.00,VWS V14.01,2013-08-16 22:46:00,
2013-08-16 15:51:00,91.8,42.3,30.03,WNW,288,13.2,13.2,18,0.00,,---,0.00,VWS V14.01,2013-08-16 22:51:00,
2013-08-16 15:57:00,91.9,42.4,30.03,WNW,288,13.2,13.2,18,0.00,,---,0.00,VWS V14.01,2013-08-16 22:57:00,
2013-08-16 16:02:00,92.5,42.9,30.03,West,281,10.1,13.2,18,0.00,,---,0.00,VWS V14.01,2013-08-16 23:02:00,
2013-08-16 16:07:00,92.3,42.7,30.03,West,281,10.1,10.1,18,0.00,,---,0.00,VWS V14.01,2013-08-16 23:07:00,
2013-08-16 16:14:00,91.8,42.3,30.03,WNW,285,12.8,12.8,18,0.00,,---,0.00,VWS V14.01,2013-08-16 23:14:00,
2013-08-16 16:19:00,91.9,42.4,30.03,West,263,15.0,15.0,18,0.00,,---,0.00,VWS V14.01,2013-08-16 23:19:00,
2013-08-16 16:25:00,91.2,41.8,30.03,WNW,296,12.8,12.8,18,0.00,,---,0.00,VWS V14.01,2013-08-16 23:25:00,
2013-08-16 16:30:00,91.6,42.1,30.03,WNW,285,8.3,8.3,18,0.00,,---,0.00,VWS V14.01,2013-08-16 23:30:00,
2013-08-16 16:35:00,91.2,41.8,30.03,WNW,298,5.4,5.4,18,0.00,,---,0.00,VWS V14.01,2013-08-16 23:35:00,
2013-08-16 16:40:00,91.4,42.0,30.03,WNW,298,5.4,5.4,18,0.00,,---,0.00,VWS V14.01,2013-08-16 23:40:00,
2013-08-16 16:45:00,90.7,41.4,30.03,WNW,298,5.4,5.4,18,0.00,,---,0.00,VWS V14.01,2013-08-16 23:45:00,
2013-08-16 16:51:00,89.2,42.3,30.03,NW,308,11.0,11.0,20,0.00,,---,0.00,VWS V14.01,2013-08-16 23:51:00,
2013-08-16 16:56:00,88.7,41.9,30.03,NNW,331,7.6,11.0,20,0.00,,---,0.00,VWS V14.01,2013-08-16 23:56:00,
2013-08-16 17:01:00,88.9,42.0,30.03,WNW,282,10.1,10.1,20,0.00,,---,0.00,VWS V14.01,2013-08-17 00:01:00,
2013-08-16 17:06:00,89.6,40.5,30.03,WNW,282,10.1,10.1,18,0.00,,---,0.00,VWS V14.01,2013-08-17 00:06:00,
2013-08-16 17:11:00,89.4,42.5,30.03,WNW,287,13.2,13.2,20,0.00,,---,0.00,VWS V14.01,2013-08-17 00:11:00,
2013-08-16 17:16:00,89.1,42.2,30.03,WNW,287,13.2,13.2,20,0.00,,---,0.00,VWS V14.01,2013-08-17 00:16:00,
2013-08-16 17:22:00,88.5,41.7,30.03,WSW,239,8.7,8.7,20,0.00,,---,0.00,VWS V14.01,2013-08-17 00:22:00,
2013-08-16 17:27:00,88.9,42.0,30.03,West,265,8.7,12.8,20,0.00,,---,0.00,VWS V14.01,2013-08-17 00:27:00,
2013-08-16 17:32:00,88.7,41.9,30.03,NW,316,8.1,8.1,20,0.00,,---,0.00,VWS V14.01,2013-08-17 00:32:00,
2013-08-16 17:37:00,87.3,40.7,30.03,NW,316,8.1,8.1,20,0.00,,---,0.00,VWS V14.01,2013-08-17 00:37:00,
2013-08-16 17:42:00,86.5,40.1,30.03,WNW,291,8.3,8.3,20,0.00,,---,0.00,VWS V14.01,2013-08-17 00:42:00,
2013-08-16 17:48:00,86.2,39.8,30.03,West,266,8.7,8.7,20,0.00,,---,0.00,VWS V14.01,2013-08-17 00:48:00,
2013-08-16 17:53:00,86.4,40.0,30.03,West,266,8.7,8.7,20,0.00,,---,0.00,VWS V14.01,2013-08-17 00:53:00,
2013-08-16 17:58:00,86.5,40.1,30.03,West,278,11.0,11.0,20,0.00,,---,0.00,VWS V14.01,2013-08-17 00:58:00,
2013-08-16 18:03:00,86.4,40.0,30.03,West,278,8.3,11.0,20,0.00,,---,0.00,VWS V14.01,2013-08-17 01:03:00,
2013-08-16 18:09:00,84.9,38.8,30.03,West,278,8.3,8.3,20,0.00,,---,0.00,VWS V14.01,2013-08-17 01:09:00,
2013-08-16 18:15:00,84.7,38.6,30.03,West,264,10.1,10.1,20,0.00,,---,0.00,VWS V14.01,2013-08-17 01:15:00,
2013-08-16 18:20:00,85.1,38.9,30.03,West,264,10.1,10.1,20,0.00,,---,0.00,VWS V14.01,2013-08-17 01:20:00,
2013-08-16 18:25:00,84.6,38.5,30.03,NW,304,5.4,5.4,20,0.00,,---,0.00,VWS V14.01,2013-08-17 01:25:00,
2013-08-16 18:31:00,84.0,39.9,30.03,West,263,8.1,8.1,21,0.00,,---,0.00,VWS V14.01,2013-08-17 01:31:00,
2013-08-16 18:37:00,83.3,39.3,30.03,West,263,8.1,8.1,21,0.00,,---,0.00,VWS V14.01,2013-08-17 01:37:00,
2013-08-16 18:42:00,82.6,38.7,30.03,West,263,8.1,8.1,21,0.00,,---,0.00,VWS V14.01,2013-08-17 01:42:00,
2013-08-16 18:48:00,82.6,38.7,30.03,West,281,8.1,8.3,21,0.00,,---,0.00,VWS V14.01,2013-08-17 01:48:00,
2013-08-16 18:54:00,82.0,38.3,30.06,WNW,293,5.4,5.4,21,0.00,,---,0.00,VWS V14.01,2013-08-17 01:54:00,
2013-08-16 19:00:00,81.0,37.4,30.06,NW,307,6.3,6.3,21,0.00,,---,0.00,VWS V14.01,2013-08-17 02:00:00,
2013-08-16 19:05:00,80.4,38.7,30.06,NW,307,6.3,6.3,22,0.00,,---,0.00,VWS V14.01,2013-08-17 02:05:00,
2013-08-16 19:10:00,80.1,38.4,30.06,WNW,297,7.2,7.2,22,0.00,,---,0.00,VWS V14.01,2013-08-17 02:10:00,
2013-08-16 19:16:00,80.1,38.4,30.06,WNW,285,6.3,6.3,22,0.00,,---,0.00,VWS V14.01,2013-08-17 02:16:00,
2013-08-16 19:21:00,79.9,38.2,30.06,WNW,285,6.3,6.3,22,0.00,,---,0.00,VWS V14.01,2013-08-17 02:21:00,
2013-08-16 19:26:00,79.0,37.5,30.06,WNW,285,6.3,6.3,22,0.00,,---,0.00,VWS V14.01,2013-08-17 02:26:00,
2013-08-16 19:31:00,78.6,37.2,30.06,WNW,285,6.3,6.3,22,0.00,,---,0.00,VWS V14.01,2013-08-17 02:31:00,
2013-08-16 19:36:00,78.3,36.9,30.06,WNW,285,6.3,6.3,22,0.00,,---,0.00,VWS V14.01,2013-08-17 02:36:00,
2013-08-16 19:42:00,78.3,36.9,30.06,West,267,4.0,4.0,22,0.00,,---,0.00,VWS V14.01,2013-08-17 02:42:00,
2013-08-16 19:47:00,78.4,37.0,30.06,West,267,4.0,4.0,22,0.00,,---,0.00,VWS V14.01,2013-08-17 02:47:00,
2013-08-16 19:52:00,77.9,36.6,30.06,West,267,4.0,4.0,22,0.00,,---,0.00,VWS V14.01,2013-08-17 02:52:00,
2013-08-16 19:57:00,77.4,36.2,30.06,WSW,249,3.1,3.1,22,0.00,,---,0.00,VWS V14.01,2013-08-17 02:57:00,
2013-08-16 20:04:00,76.8,32.1,30.06,WSW,249,3.1,3.1,20,0.00,,---,0.00,VWS V14.01,2013-08-17 03:04:00,
2013-08-16 20:09:00,76.5,35.4,30.06,WSW,241,0.0,0.0,22,0.00,,---,0.00,VWS V14.01,2013-08-17 03:09:00,
2013-08-16 20:14:00,76.3,35.2,30.06,WSW,241,0.0,0.0,22,0.00,,---,0.00,VWS V14.01,2013-08-17 03:14:00,
2013-08-16 20:20:00,75.9,34.9,30.06,SSW,193,0.0,0.0,22,0.00,,---,0.00,VWS V14.01,2013-08-17 03:20:00,
2013-08-16 20:25:00,76.3,35.2,30.06,SSW,193,0.0,0.0,22,0.00,,---,0.00,VWS V14.01,2013-08-17 03:25:00,
2013-08-16 20:30:00,75.7,34.8,30.06,West,275,0.0,0.0,22,0.00,,---,0.00,VWS V14.01,2013-08-17 03:30:00,
2013-08-16 20:35:00,75.4,34.5,30.06,WNW,290,0.0,0.0,22,0.00,,---,0.00,VWS V14.01,2013-08-17 03:35:00,
2013-08-16 20:40:00,74.7,35.5,30.06,WNW,290,0.0,0.0,24,0.00,,---,0.00,VWS V14.01,2013-08-17 03:40:00,
2013-08-16 20:45:00,74.3,35.2,30.06,WNW,290,0.0,0.0,24,0.00,,---,0.00,VWS V14.01,2013-08-17 03:45:00,
2013-08-16 20:51:00,74.1,35.1,30.06,WNW,286,0.0,0.0,24,0.00,,---,0.00,VWS V14.01,2013-08-17 03:51:00,
2013-08-16 20:56:00,73.9,34.9,30.06,WNW,286,0.0,0.0,24,0.00,,---,0.00,VWS V14.01,2013-08-17 03:56:00,
2013-08-16 21:01:00,73.4,34.5,30.06,WNW,286,0.0,0.0,24,0.00,,---,0.00,VWS V14.01,2013-08-17 04:01:00,
2013-08-16 21:02:00,73.2,34.3,30.06,WNW,286,0.0,0.0,24,0.00,,---,0.00,VWS V14.01,2013-08-17 04:02:00,
2013-08-16 21:05:00,73.0,34.1,30.06,WNW,286,0.0,0.0,24,0.00,,---,0.00,VWS V14.01,2013-08-17 04:05:00,
2013-08-16 21:10:00,72.5,33.7,30.09,WNW,286,0.0,0.0,24,0.00,,---,0.00,VWS V14.01,2013-08-17 04:10:00,
2013-08-16 21:12:00,72.5,33.7,30.09,WNW,286,0.0,0.0,24,0.00,,---,0.00,VWS V14.01,2013-08-17 04:12:00,
2013-08-16 21:18:00,72.3,33.5,30.09,WNW,286,0.0,0.0,24,0.00,,---,0.00,VWS V14.01,2013-08-17 04:18:00,
2013-08-16 21:23:00,71.8,33.1,30.09,WNW,286,0.0,0.0,24,0.00,,---,0.00,VWS V14.01,2013-08-17 04:23:00,
2013-08-16 21:29:00,71.2,34.1,30.09,WNW,286,0.0,0.0,26,0.00,,---,0.00,VWS V14.01,2013-08-17 04:29:00,
2013-08-16 21:34:00,70.9,33.8,30.09,WNW,286,0.0,0.0,26,0.00,,---,0.00,VWS V14.01,2013-08-17 04:34:00,
2013-08-16 21:39:00,70.5,33.5,30.09,WNW,286,0.0,0.0,26,0.00,,---,0.00,VWS V14.01,2013-08-17 04:39:00,
2013-08-16 21:44:00,69.8,32.9,30.09,East,100,0.0,0.0,26,0.00,,---,0.00,VWS V14.01,2013-08-17 04:44:00,
2013-08-16 21:49:00,69.1,32.3,30.09,East,100,0.0,0.0,26,0.00,,---,0.00,VWS V14.01,2013-08-17 04:49:00,
2013-08-16 21:55:00,68.5,31.8,30.09,NE,53,2.2,2.2,26,0.00,,---,0.00,VWS V14.01,2013-08-17 04:55:00,
2013-08-16 22:00:00,68.4,31.7,30.09,NE,53,0.0,0.0,26,0.00,,---,0.00,VWS V14.01,2013-08-17 05:00:00,
2013-08-16 22:05:00,68.4,31.7,30.09,ENE,58,0.0,0.0,26,0.00,,---,0.00,VWS V14.01,2013-08-17 05:05:00,
2013-08-16 22:10:00,68.2,31.5,30.09,ENE,58,0.0,0.0,26,0.00,,---,0.00,VWS V14.01,2013-08-17 05:10:00,
2013-08-16 22:16:00,67.8,31.2,30.09,ENE,60,0.0,0.0,26,0.00,,---,0.00,VWS V14.01,2013-08-17 05:16:00,
2013-08-16 22:22:00,67.5,30.9,30.09,ENE,72,0.0,0.0,26,0.00,,---,0.00,VWS V14.01,2013-08-17 05:22:00,
2013-08-16 22:27:00,67.3,30.8,30.09,SSE,153,0.0,0.0,26,0.00,,---,0.00,VWS V14.01,2013-08-17 05:27:00,
2013-08-16 22:33:00,67.1,30.6,30.09,SSE,153,0.0,0.0,26,0.00,,---,0.00,VWS V14.01,2013-08-17 05:33:00,
2013-08-16 22:39:00,66.6,30.2,30.09,ENE,70,2.7,3.1,26,0.00,,---,0.00,VWS V14.01,2013-08-17 05:39:00,
2013-08-16 22:44:00,66.4,30.0,30.09,ENE,75,0.0,3.1,26,0.00,,---,0.00,VWS V14.01,2013-08-17 05:44:00,
2013-08-16 22:50:00,66.0,31.1,30.09,East,84,0.0,0.0,27,0.00,,---,0.00,VWS V14.01,2013-08-17 05:50:00,
2013-08-16 22:56:00,65.8,31.0,30.09,East,84,0.0,0.0,27,0.00,,---,0.00,VWS V14.01,2013-08-17 05:56:00,
2013-08-16 23:01:00,65.3,30.5,30.09,East,84,0.0,0.0,27,0.00,,---,0.00,VWS V14.01,2013-08-17 06:01:00,
2013-08-16 23:07:00,65.1,30.3,30.09,SE,134,2.7,3.1,27,0.00,,---,0.00,VWS V14.01,2013-08-17 06:07:00,
2013-08-16 23:13:00,64.8,30.0,30.09,ENE,71,2.7,3.1,27,0.00,,---,0.00,VWS V14.01,2013-08-17 06:13:00,
2013-08-16 23:19:00,64.0,29.4,30.09,East,81,2.2,4.0,27,0.00,,---,0.00,VWS V14.01,2013-08-17 06:19:00,
2013-08-16 23:24:00,63.7,29.1,30.09,NE,46,2.7,3.1,27,0.00,,---,0.00,VWS V14.01,2013-08-17 06:24:00,
2013-08-16 23:30:00,63.1,28.6,30.09,NNE,32,2.2,2.7,27,0.00,,---,0.00,VWS V14.01,2013-08-17 06:30:00,
2013-08-16 23:36:00,63.1,32.4,30.09,NNE,32,0.0,0.0,32,0.00,,---,0.00,VWS V14.01,2013-08-17 06:36:00,
2013-08-16 23:41:00,63.1,32.4,30.09,NNE,32,0.0,0.0,32,0.00,,---,0.00,VWS V14.01,2013-08-17 06:41:00,
2013-08-16 23:47:00,63.0,32.3,30.09,NNE,32,0.0,0.0,32,0.00,,---,0.00,VWS V14.01,2013-08-17 06:47:00,
2013-08-16 23:53:00,62.6,32.0,30.09,NNE,32,0.0,0.0,32,0.00,,---,0.00,VWS V14.01,2013-08-17 06:53:00,
2013-08-16 23:58:00,62.2,31.6,30.09,NNE,32,0.0,0.0,32,0.00,,---,0.00,VWS V14.01,2013-08-17 06:58:00,